Coolidge Muni, Coolidge, AZ

12:41 AM MST on December 16, 2019 (GMT -0700)
Coolidge Muni, Coolidge

Weather History for KP08 - September, 2019

Change the Weather History Date:

Tuesday, September 17, 2019

  Actual Average (KCGZ) Record (KCGZ)
Temperature  
Mean Temperature 80 °F -  
Max Temperature 95 °F 95 °F 104 °F (2010)
Min Temperature 66 °F 68 °F 53 °F (2010)
Cooling Degree Days 16    
Growing Degree Days 30 (Base 50)    
Moisture  
Dew Point 56 °F    
Average Humidity 43    
Maximum Humidity 83    
Minimum Humidity 19    
Precipitation  
Precipitation 0.00 in - - ()
Sea Level Pressure  
Sea Level Pressure 29.91 in    
Wind  
Wind Speed 5 mph ()    
Max Wind Speed 12 mph    
Max Gust Speed 17 mph    
Visibility 10.0 miles    
Events      
Averages and records for this station are not official NWS values.
T = Trace of Precipitation, MM = Missing Value Source: Averaged Metar Reports

Daily Weather History Graph

Daily Weather History Graph

Search for Another Location

Airport or City:

Astronomy

Sep. 17, 2019 Rise Set
Actual Time 6:10 AM MST 6:29 PM MST
Civil Twilight 5:45 AM MST 6:54 PM MST
Nautical Twilight 5:16 AM MST 7:22 PM MST
Astronomical Twilight 4:47 AM MST 7:52 PM MST
Moon 8:44 PM MST (9/17) 9:10 AM MST (9/17)
Length of Visible Light 13h 08m
Length of Day
12h 18m
Waning Gibbous, 88% of the Moon is Illuminated
Sep 17
Waning Gibbous
Sep 21
Last Quarter
Sep 28
New
Oct 5
First Quarter
Oct 13
Full

Hourly Weather History & Observations

Time (MST) Temp. Heat Index Dew Point Humidity Pressure Visibility Wind Dir Wind Speed Gust Speed Precip Events Conditions
12:15 AM 75.2 °F - 59.0 °F 57% 29.92 in 10.0 mi ESE 9.2 mph 15.0 mph N/A   Clear
12:35 AM 73.4 °F - 59.0 °F 61% 29.92 in 10.0 mi South 5.8 mph 12.7 mph N/A   Clear
12:55 AM 71.6 °F - 60.8 °F 69% 29.92 in 10.0 mi SE 8.1 mph - N/A   Clear
1:15 AM 71.6 °F - 60.8 °F 69% 29.92 in 10.0 mi ESE 5.8 mph - N/A   Clear
1:35 AM 71.6 °F - 60.8 °F 69% 29.92 in 10.0 mi ENE 5.8 mph - N/A   Clear
1:55 AM 71.6 °F - 60.8 °F 69% 29.92 in 10.0 mi East 5.8 mph - N/A   Clear
2:15 AM 71.6 °F - 60.8 °F 69% 29.92 in 10.0 mi ENE 8.1 mph - N/A   Clear
2:35 AM 71.6 °F - 59.0 °F 64% 29.92 in 10.0 mi ENE 5.8 mph - N/A   Clear
2:55 AM 71.6 °F - 57.2 °F 60% 29.93 in 10.0 mi ENE 6.9 mph - N/A   Clear
3:15 AM 71.6 °F - 57.2 °F 60% 29.92 in 10.0 mi East 6.9 mph - N/A   Clear
3:30 AM 71.6 °F - 57.2 °F 60% 29.93 in 10.0 mi East 9.2 mph - N/A   Clear
3:55 AM 71.6 °F - 57.2 °F 60% 29.93 in 10.0 mi East 6.9 mph - N/A   Clear
4:10 AM 69.8 °F - 57.2 °F 64% 29.93 in 10.0 mi ESE 6.9 mph - N/A   Clear
4:35 AM 69.8 °F - 57.2 °F 64% 29.93 in 10.0 mi East 8.1 mph - N/A   Clear
4:50 AM 69.8 °F - 57.2 °F 64% 29.94 in 10.0 mi ESE 5.8 mph - N/A   Clear
5:15 AM 69.8 °F - 57.2 °F 64% 29.94 in 10.0 mi East 6.9 mph - N/A   Clear
5:35 AM 69.8 °F - 57.2 °F 64% 29.95 in 10.0 mi Calm Calm - N/A   Clear
5:55 AM 69.8 °F - 59.0 °F 68% 29.95 in 10.0 mi East 5.8 mph - N/A   Clear
6:15 AM 68.0 °F - 59.0 °F 73% 29.96 in 10.0 mi SSE 3.5 mph - N/A   Clear
6:35 AM 66.2 °F - 60.8 °F 83% 29.96 in 10.0 mi East 3.5 mph - N/A   Clear
6:50 AM 68.0 °F - 60.8 °F 78% 29.97 in 10.0 mi East 5.8 mph - N/A   Clear
7:15 AM 71.6 °F - 59.0 °F 64% 29.97 in 10.0 mi East 5.8 mph - N/A   Clear
7:35 AM 73.4 °F - 59.0 °F 61% 29.98 in 10.0 mi ESE 6.9 mph - N/A   Clear
7:50 AM 75.2 °F - 57.2 °F 53% 29.98 in 10.0 mi East 6.9 mph - N/A   Clear
8:15 AM 77.0 °F - 57.2 °F 50% 29.98 in 10.0 mi ESE 6.9 mph - N/A   Clear
8:35 AM 78.8 °F - 57.2 °F 47% 29.99 in 10.0 mi ESE 4.6 mph - N/A   Clear
8:55 AM 80.6 °F 80.8 °F 57.2 °F 45% 29.99 in 10.0 mi Calm Calm - N/A   Clear
9:15 AM 84.2 °F 83.5 °F 57.2 °F 40% 29.99 in 10.0 mi SSE 6.9 mph - N/A   Clear
9:35 AM 86.0 °F 84.9 °F 57.2 °F 37% 29.99 in 10.0 mi South 6.9 mph - N/A   Clear
9:55 AM 86.0 °F 84.9 °F 57.2 °F 37% 29.99 in 10.0 mi Variable 5.8 mph - N/A   Clear
10:10 AM 86.0 °F 84.9 °F 57.2 °F 37% 29.99 in 10.0 mi Variable 4.6 mph - N/A   Clear
10:30 AM 87.8 °F 86.1 °F 55.4 °F 33% 29.98 in 10.0 mi Calm Calm - N/A   Clear
10:50 AM 89.6 °F 87.7 °F 55.4 °F 31% 29.98 in 10.0 mi Calm Calm - N/A   Clear
11:15 AM 89.6 °F 88.1 °F 57.2 °F 33% 29.97 in 10.0 mi Variable 5.8 mph - N/A   Clear
11:30 AM 89.6 °F 88.1 °F 57.2 °F 33% 29.96 in 10.0 mi Calm Calm - N/A   Clear
11:50 AM 91.4 °F 89.4 °F 55.4 °F 29% 29.95 in 10.0 mi Variable 4.6 mph - N/A   Clear
12:15 PM 91.4 °F 89.4 °F 55.4 °F 29% 29.94 in 10.0 mi South 5.8 mph - N/A   Clear
12:30 PM 93.2 °F 90.8 °F 53.6 °F 26% 29.94 in 10.0 mi Variable 5.8 mph - N/A   Clear
12:50 PM 91.4 °F 89.1 °F 53.6 °F 28% 29.93 in 10.0 mi SE 4.6 mph - N/A   Clear
1:15 PM 93.2 °F 91.3 °F 55.4 °F 28% 29.92 in 10.0 mi SW 6.9 mph 12.7 mph N/A   Clear
1:35 PM 93.2 °F 90.8 °F 53.6 °F 26% 29.91 in 10.0 mi Variable 4.6 mph - N/A   Clear
1:55 PM 95.0 °F 92.7 °F 53.6 °F 25% 29.90 in 10.0 mi SSW 9.2 mph - N/A   Clear
2:15 PM 95.0 °F 92.7 °F 53.6 °F 25% 29.90 in 10.0 mi Variable 6.9 mph - N/A   Clear
2:35 PM 95.0 °F - 48.2 °F 20% 29.89 in 10.0 mi SSW 9.2 mph 17.3 mph N/A   Clear
2:55 PM 95.0 °F - 46.4 °F 19% 29.88 in 10.0 mi SW 11.5 mph - N/A   Clear
3:15 PM 95.0 °F - 50.0 °F 22% 29.88 in 10.0 mi SW 8.1 mph - N/A   Clear
3:35 PM 95.0 °F - 51.8 °F 23% 29.87 in 10.0 mi South 6.9 mph 13.8 mph N/A   Clear
3:55 PM 95.0 °F 92.7 °F 53.6 °F 25% 29.87 in 10.0 mi South 5.8 mph - N/A   Clear
4:15 PM 95.0 °F 92.7 °F 53.6 °F 25% 29.86 in 10.0 mi Variable 4.6 mph - N/A   Clear
4:35 PM 95.0 °F 92.7 °F 53.6 °F 25% 29.85 in 10.0 mi Calm Calm - N/A   Clear
4:55 PM 93.2 °F 90.8 °F 53.6 °F 26% 29.85 in 10.0 mi Calm Calm - N/A   Clear
5:15 PM 93.2 °F 90.8 °F 53.6 °F 26% 29.85 in 10.0 mi Variable 4.6 mph - N/A   Clear
5:35 PM 93.2 °F 90.8 °F 53.6 °F 26% 29.85 in 10.0 mi WNW 4.6 mph - N/A   Clear
5:55 PM 93.2 °F 90.8 °F 53.6 °F 26% 29.85 in 10.0 mi Calm Calm - N/A   Clear
6:15 PM 93.2 °F 90.8 °F 53.6 °F 26% 29.85 in 10.0 mi Calm Calm - N/A   Clear
6:35 PM 93.2 °F 90.8 °F 53.6 °F 26% 29.85 in 10.0 mi Calm Calm - N/A   Clear
6:50 PM 93.2 °F 90.8 °F 53.6 °F 26% 29.85 in 10.0 mi Calm Calm - N/A   Clear
7:15 PM 91.4 °F 89.1 °F 53.6 °F 28% 29.85 in 10.0 mi Calm Calm - N/A   Clear
7:35 PM 89.6 °F 87.3 °F 53.6 °F 29% 29.85 in 10.0 mi NNE 3.5 mph - N/A   Clear
7:55 PM 89.6 °F - 51.8 °F 27% 29.86 in 10.0 mi NE 3.5 mph - N/A   Clear
8:15 PM 87.8 °F - 51.8 °F 29% 29.86 in 10.0 mi Calm Calm - N/A   Clear
8:35 PM 86.0 °F - 51.8 °F 31% 29.86 in 10.0 mi Calm Calm - N/A   Clear
8:55 PM 84.2 °F - 51.8 °F 33% 29.87 in 10.0 mi Calm Calm - N/A   Clear
9:15 PM 84.2 °F - 51.8 °F 33% 29.87 in 10.0 mi ESE 4.6 mph - N/A   Clear
9:35 PM 82.4 °F - 51.8 °F 35% 29.87 in 10.0 mi East 5.8 mph - N/A   Clear
9:55 PM 82.4 °F - 51.8 °F 35% 29.87 in 10.0 mi East 4.6 mph - N/A   Clear
10:15 PM 82.4 °F - 51.8 °F 35% 29.87 in 10.0 mi East 6.9 mph - N/A   Clear
10:35 PM 82.4 °F 81.4 °F 53.6 °F 37% 29.87 in 10.0 mi ESE 5.8 mph - N/A   Clear
10:55 PM 80.6 °F 80.3 °F 53.6 °F 39% 29.87 in 10.0 mi ESE 6.9 mph - N/A   Clear
11:15 PM 80.6 °F 80.5 °F 55.4 °F 42% 29.87 in 10.0 mi ESE 8.1 mph - N/A   Clear
11:35 PM 80.6 °F 80.5 °F 55.4 °F 42% 29.87 in 10.0 mi ESE 8.1 mph - N/A   Clear
11:55 PM 80.6 °F 80.5 °F 55.4 °F 42% 29.87 in 10.0 mi ESE 9.2 mph - N/A   Clear